Theta_e
316 316 318 317 317 322 327 325 327 333 330 331 333 328 325 325 324 322 319 318 318 319 320 321 323 323 323 323 325 324 323 327 329 330 328 327 326 321 321 323 321 319 317 317 316 316 317 316 316 317 319 320 322 323 323 323 323 322 323 326 328 327 327 326 326 327 327 329 329 329 329 330 329 328 328 328 328 328 327 327 327 327 327 327 328 330 331 333 333 333 333 333 333 332 332 333 333
315 316 317 317 320 326 331 327 329 334 327 328 330 326 324 324 323 322 321 320 319 319 320 321 322 323 322 322 321 322 323 324 323 324 323 322 324 321 322 325 322 319 316 316 316 316 316 316 315 315 316 317 316 316 316 317 317 317 318 318 319 319 319 319 321 321 323 325 326 327 327 327 327 326 325 325 324 324 323 323 324 324 324 324 324 325 327 329 329 330 330 330 330 330 330 331 330
316 317 317 320 324 327 330 328 332 330 324 327 331 329 323 321 324 322 320 319 320 319 319 320 320 321 320 322 320 320 323 321 320 319 319 321 323 320 321 323 321 318 315 315 315 315 315 315 314 314 314 314 313 313 313 314 313 313 314 313 314 313 313 314 314 315 315 317 318 319 320 320 319 318 317 317 317 316 317 317 317 318 318 319 320 322 324 325 326 327 328 328 328 328 328 328 329
317 319 321 324 328 329 331 331 335 329 326 328 328 331 324 323 325 320 319 319 319 319 318 319 319 320 319 322 320 321 322 321 320 319 319 320 320 318 319 320 318 316 315 315 315 314 314 314 314 314 314 313 313 313 313 313 313 313 312 312 312 312 312 312 311 312 312 312 312 312 312 312 312 312 312 312 312 312 312 312 312 313 313 313 314 316 318 319 321 322 323 323 323 323 324 325 326
319 323 325 328 332 331 331 332 335 329 330 330 322 328 326 324 324 319 319 319 319 318 317 318 320 320 318 321 320 321 323 321 321 319 319 319 318 317 318 318 316 315 316 314 314 314 314 314 314 313 313 313 312 312 312 312 311 311 311 311 311 310 311 310 310 310 310 310 310 310 310 310 310 310 310 310 310 310 310 310 310 310 311 311 311 311 312 313 313 314 315 316 316 316 317 319 320
321 324 326 327 328 328 330 332 335 330 329 328 322 325 324 322 321 318 318 318 319 318 318 318 320 320 318 320 319 320 322 321 321 319 318 318 318 317 316 316 314 314 315 314 314 314 314 314 313 312 312 311 310 310 310 310 310 309 309 309 309 309 309 309 309 308 308 308 308 308 308 308 308 308 308 308 308 307 307 308 308 308 308 308 308 309 309 309 310 309 310 310 311 311 311 312 313
321 323 324 325 325 324 329 331 332 331 327 325 324 324 322 320 318 318 318 318 318 318 318 318 319 320 319 319 319 320 321 321 321 318 318 318 318 317 315 314 314 314 314 314 314 314 313 313 312 312 311 310 309 309 309 309 309 309 309 308 308 308 308 308 307 307 306 306 306 305 305 305 305 305 304 304 304 304 304 304 304 304 304 304 304 305 305 305 305 306 306 306 306 307 307 308 309
322 325 323 327 331 324 327 329 326 326 325 323 322 322 321 319 317 319 320 318 319 317 318 318 318 319 319 319 318 319 320 320 320 319 317 317 317 317 316 315 315 314 314 314 314 314 313 312 312 311 310 309 309 309 309 309 309 308 308 308 308 307 307 307 306 305 305 304 304 303 303 303 303 303 303 303 303 303 303 303 303 303 303 303 303 302 303 303 303 303 303 303 303 303 303 304 304
323 326 323 327 331 326 328 328 325 324 324 324 321 320 320 320 319 320 320 318 318 316 318 319 318 319 319 318 318 318 318 319 318 318 317 316 317 317 317 316 315 314 314 314 313 313 313 312 311 310 310 309 309 309 309 308 308 308 308 308 307 307 306 305 304 304 304 303 303 303 303 303 303 303 303 303 303 303 303 303 303 302 302 302 302 302 302 302 302 302 302 302 302 302 302 303 303
322 323 322 326 329 327 329 327 326 329 325 323 321 320 320 320 320 319 319 319 318 317 317 318 318 317 318 318 318 318 318 318 318 317 317 316 316 316 316 316 315 314 314 314 313 313 312 312 311 310 309 309 309 309 309 308 308 307 307 307 306 305 304 304 303 303 303 303 303 303 303 303 303 303 303 303 303 303 303 303 302 302 302 302 302 302 302 302 302 302 302 302 302 302 302 302 302
323 323 321 324 327 326 330 328 327 331 327 322 320 319 320 320 320 319 318 319 319 317 317 318 318 317 317 317 318 318 318 318 318 317 316 316 316 316 316 316 315 314 314 314 313 313 312 311 311 310 309 309 309 309 308 308 307 307 307 306 304 303 303 303 303 303 303 303 303 303 303 303 303 303 302 302 302 303 303 302 302 302 302 302 302 302 302 302 302 302 302 302 302 302 302 302 302
323 326 324 325 328 326 328 328 326 329 330 325 320 319 320 320 320 319 318 319 318 317 318 318 318 317 317 317 317 318 318 318 318 317 316 315 315 315 315 315 315 314 313 313 313 313 312 311 311 310 310 309 309 308 308 307 307 307 306 304 303 303 303 303 303 303 303 303 303 303 302 302 302 302 302 302 302 302 302 302 302 302 302 302 302 302 302 302 302 302 302 301 301 301 301 301 302
322 324 324 327 332 329 325 326 327 329 330 325 319 319 320 319 320 319 319 318 317 318 319 318 318 318 317 317 317 318 318 318 318 317 316 315 315 315 315 315 315 315 314 313 313 313 312 311 311 310 310 309 309 308 308 307 307 306 305 304 302 302 302 303 302 302 302 302 302 302 302 302 302 302 302 302 302 302 302 302 302 302 302 302 302 302 301 301 301 301 301 301 301 301 301 301 301
321 322 322 328 332 327 324 326 327 326 329 325 318 318 319 319 319 319 319 319 318 318 319 318 317 318 317 317 317 318 318 318 318 317 316 315 315 315 315 315 314 314 314 313 313 312 312 311 311 310 310 309 308 308 307 307 307 306 305 303 302 302 302 302 302 302 302 302 302 302 302 302 302 301 301 301 301 301 302 302 302 302 303 303 303 303 303 302 302 302 301 301 301 301 301 301 301
320 321 322 326 328 326 325 326 324 323 329 327 318 319 319 318 319 318 319 319 318 318 319 318 317 318 318 317 318 318 318 318 318 317 316 316 315 315 315 314 314 314 313 313 312 312 311 311 311 310 309 309 308 308 307 307 307 306 305 303 302 302 303 302 302 302 302 302 302 302 302 302 301 302 301 301 302 302 302 303 303 304 305 305 305 305 305 304 303 303 302 302 301 301 301 300 300
320 321 322 324 327 326 326 328 326 324 328 324 317 319 318 318 319 318 319 318 318 318 318 318 317 318 317 317 317 317 317 317 317 317 316 316 315 314 314 314 314 314 313 313 312 312 311 311 311 310 310 309 308 308 307 307 307 307 305 303 303 303 303 302 302 302 302 302 302 302 302 302 302 302 302 302 303 303 304 304 305 305 306 306 306 305 305 305 305 304 303 303 302 301 301 300 300
320 321 324 325 327 326 329 330 324 325 328 321 316 318 318 318 318 318 318 317 318 318 318 318 317 318 317 317 317 317 318 317 317 317 316 315 315 314 314 314 314 314 314 313 312 312 311 311 311 310 310 309 309 308 307 307 307 307 305 303 303 303 303 303 303 302 302 302 302 302 302 303 303 303 304 304 305 305 305 305 305 305 305 305 305 305 305 305 305 304 304 303 303 302 301 300 300
321 326 325 323 327 326 329 328 319 321 324 319 316 317 317 318 318 317 317 317 317 316 317 318 317 317 317 317 317 317 317 317 317 317 317 316 315 315 314 314 314 314 314 313 313 312 311 310 311 311 310 309 309 308 308 307 307 307 306 304 303 303 303 303 303 303 303 303 303 303 304 304 305 304 304 305 305 305 305 305 304 304 304 304 305 304 304 305 304 304 304 304 303 302 301 300 300
322 329 325 326 331 326 323 321 318 319 319 318 317 318 317 318 317 316 317 317 316 316 316 316 317 317 316 317 316 316 316 317 317 316 316 316 315 315 315 314 314 314 314 314 313 313 312 311 311 311 311 309 309 308 308 308 307 307 306 304 304 303 303 303 303 303 303 303 303 304 305 305 305 305 304 305 305 305 304 304 304 304 304 304 304 304 304 304 304 304 304 304 304 303 302 301 300
321 323 326 331 330 322 320 319 318 318 318 317 316 317 317 317 317 316 316 316 316 316 316 315 315 316 316 316 316 316 316 315 316 316 316 315 315 315 315 315 314 314 314 314 314 313 313 312 311 311 311 310 309 308 308 308 307 307 307 305 304 303 303 303 302 303 303 303 303 303 304 304 304 304 304 304 304 304 304 303 303 303 303 303 303 304 304 304 304 304 304 304 303 302 301 301 300
321 321 326 328 321 319 321 319 318 318 318 317 317 317 316 316 317 316 315 316 317 315 316 316 316 317 316 316 315 315 315 315 315 315 315 315 315 315 315 314 314 314 314 314 313 313 313 312 312 311 311 310 309 308 308 308 308 307 307 305 304 303 302 302 302 302 303 303 303 303 304 304 304 304 304 304 303 303 303 303 303 303 303 303 303 303 304 304 304 304 303 303 302 302 301 300 299
321 319 320 320 318 320 321 318 318 318 317 317 316 316 316 316 316 316 315 316 317 316 317 317 317 317 316 316 316 315 315 315 315 315 315 315 315 315 314 314 314 313 313 313 313 313 313 313 312 312 311 310 309 308 308 308 307 307 307 306 304 303 303 302 302 302 302 302 303 303 303 303 303 303 303 303 303 303 303 303 303 303 303 303 303 303 303 303 304 303 303 303 302 301 300 299 298
321 321 318 318 319 319 319 319 318 317 317 316 315 316 315 315 316 316 315 316 317 316 317 317 317 317 316 316 316 316 316 315 316 316 316 316 315 315 315 314 314 314 313 313 313 313 313 313 313 312 311 311 309 308 308 308 307 307 307 306 305 303 303 302 302 302 302 302 302 303 303 303 303 303 303 302 302 302 302 303 303 303 303 303 303 303 303 303 303 303 303 303 302 300 299 298 297
321 322 318 318 319 318 319 318 317 317 317 316 316 315 314 315 316 316 315 316 317 317 316 316 317 317 316 316 316 316 316 316 316 316 316 316 316 316 315 315 314 314 314 313 313 313 312 313 313 312 312 311 309 308 308 308 307 307 307 306 305 303 303 302 302 302 302 302 302 302 302 303 302 302 302 302 302 302 302 302 302 302 302 302 302 303 303 303 303 303 303 302 301 300 299 298 297
320 321 318 317 318 317 318 317 317 317 316 317 316 314 314 315 315 314 315 316 317 317 317 316 316 316 316 316 316 316 316 316 316 316 316 316 316 315 314 314 314 313 313 313 313 313 312 312 312 312 312 311 310 309 308 308 307 307 307 306 305 304 303 302 302 302 302 302 302 302 302 302 302 302 302 302 302 302 302 302 302 302 302 302 302 302 302 302 303 303 303 302 301 299 299 298 298
318 318 317 315 316 316 317 316 316 316 316 316 315 314 314 314 314 314 315 316 316 316 316 316 316 316 316 316 316 316 316 316 316 316 316 315 315 315 314 314 313 314 313 313 313 313 312 312 312 312 312 311 310 309 308 308 307 307 307 306 305 304 303 302 302 302 302 302 302 302 302 302 301 301 301 301 301 301 302 302 302 302 302 302 302 302 302 302 302 302 302 302 300 299 298 298 297
317 316 316 315 315 316 316 316 316 316 315 315 315 315 314 313 314 314 316 316 316 316 316 316 316 316 316 316 316 316 316 316 316 316 315 315 315 314 314 314 313 314 313 313 313 313 312 312 312 312 312 311 310 310 308 307 307 307 306 306 305 305 304 303 302 302 302 302 302 301 301 301 301 301 301 301 301 301 301 301 301 301 301 301 301 302 302 302 302 302 302 301 299 298 297 297 297
316 315 315 316 315 315 315 315 315 315 315 315 315 315 313 313 313 314 316 316 315 315 316 316 316 316 316 316 316 316 316 316 316 315 315 315 315 315 315 314 314 314 313 314 313 313 312 312 312 311 311 311 310 310 309 308 307 306 306 306 305 305 304 303 303 302 302 301 301 301 301 301 301 301 301 301 301 301 301 301 301 301 301 301 301 301 301 301 301 302 301 300 298 297 296 296 296
315 315 316 317 315 315 315 315 315 315 315 315 314 315 315 314 314 315 316 316 315 315 315 316 316 316 316 316 316 316 316 316 315 315 316 316 316 315 315 315 315 314 314 314 313 313 312 312 311 311 311 310 310 310 309 308 307 306 306 306 305 305 304 303 303 302 301 301 301 301 301 301 301 300 300 301 301 301 301 300 301 301 301 301 301 301 301 301 301 301 301 299 298 296 296 295 295
316 315 315 317 316 317 316 314 316 314 314 315 314 316 318 316 314 315 317 316 315 314 314 315 315 316 316 316 316 316 316 316 316 316 316 316 316 316 315 315 314 314 314 313 313 313 312 312 311 311 310 310 310 309 309 308 307 306 306 305 305 305 304 303 303 302 301 301 301 301 301 301 300 300 300 300 300 300 300 300 300 300 300 300 300 300 300 301 301 300 300 299 297 296 295 295 295
316 314 315 317 317 319 317 314 315 315 314 314 315 316 317 317 315 315 316 316 315 313 314 315 315 315 316 316 316 316 316 316 316 316 316 316 315 315 315 315 314 313 313 313 313 313 312 312 311 311 310 310 309 309 309 308 307 306 305 305 305 305 304 303 303 302 301 301 301 301 301 301 300 300 300 300 300 300 300 300 300 300 300 300 300 300 300 300 300 300 299 298 296 295 295 295 295
317 316 319 320 318 318 317 314 314 316 315 312 315 317 316 316 315 316 316 315 315 313 314 315 314 315 315 316 316 316 316 316 316 316 315 315 315 315 315 315 314 313 313 313 312 312 311 311 311 311 310 309 309 309 308 308 307 306 305 305 305 305 304 303 303 302 301 300 301 301 301 301 300 300 300 300 300 300 300 300 300 300 300 300 300 300 300 300 299 299 297 297 296 295 295 294 295
319 316 318 321 319 316 317 317 313 313 315 312 314 317 316 317 315 316 317 315 315 313 313 314 315 316 316 315 316 316 316 316 316 315 315 315 314 314 314 314 314 314 313 313 312 312 311 311 311 310 310 309 309 308 308 308 307 306 305 305 304 304 304 303 303 301 300 300 300 300 300 300 300 300 300 299 300 300 300 299 299 299 299 299 299 299 299 299 299 298 296 296 295 295 294 294 295
319 318 317 318 318 316 318 321 314 311 315 314 314 314 316 317 315 315 316 316 315 313 313 315 316 316 316 316 316 316 316 316 316 316 316 315 315 314 314 314 314 313 313 312 312 311 311 311 311 310 309 308 308 307 307 307 307 306 305 304 304 304 304 303 302 301 300 300 300 300 300 300 300 299 299 299 299 299 299 299 299 299 299 299 299 299 299 298 298 297 296 295 294 294 293 294 294
318 320 319 318 318 316 316 319 315 313 315 315 314 313 313 314 313 313 314 315 313 313 314 315 316 317 317 317 316 316 316 316 316 316 316 315 315 314 314 314 313 313 313 312 311 310 310 310 309 309 309 308 307 307 306 306 306 306 305 303 303 303 303 302 301 300 300 300 300 299 299 300 300 299 299 299 299 299 299 299 299 299 299 299 299 299 298 298 297 297 296 295 294 293 293 294 294
317 318 318 317 316 315 315 316 316 315 316 316 315 314 313 313 313 312 313 314 313 312 313 314 315 316 317 316 316 316 315 316 316 316 315 315 315 315 314 313 313 313 312 312 311 310 310 309 308 308 308 308 307 306 306 306 305 305 304 303 303 303 303 302 302 301 300 300 299 299 299 299 299 299 299 298 299 299 299 299 299 299 299 299 299 299 298 298 297 297 296 295 294 293 293 293 294
315 316 316 316 315 315 314 316 317 315 316 317 317 315 314 314 314 313 312 313 312 311 311 312 313 314 315 315 315 315 315 316 316 315 315 315 315 315 314 313 313 312 312 311 310 310 309 309 309 308 308 308 307 307 307 306 306 306 305 305 304 304 303 303 302 301 300 300 299 299 299 299 299 299 298 298 298 298 298 298 298 298 298 298 298 298 298 298 297 297 296 295 294 294 293 293 293
314 315 315 315 316 316 315 316 317 315 315 317 316 315 315 314 314 313 313 313 312 312 312 312 312 313 313 314 314 315 315 316 316 315 314 315 314 314 314 313 313 312 312 311 310 310 309 309 309 308 308 308 308 308 307 308 308 307 307 307 306 305 304 303 303 302 301 300 299 299 299 299 299 299 298 298 298 298 298 298 298 298 298 298 298 298 298 298 297 296 295 295 294 293 293 292 292
315 315 316 316 316 316 315 316 318 314 314 318 318 315 314 313 314 313 313 313 312 313 313 314 314 313 313 314 314 314 315 315 315 315 315 315 315 314 313 313 312 312 312 311 310 309 309 309 308 308 308 308 308 308 308 308 307 307 307 307 306 306 304 303 303 302 301 300 299 299 299 299 299 299 298 298 298 298 298 298 298 298 298 298 298 298 298 298 297 296 295 294 293 293 293 292 291
316 316 316 317 316 316 315 316 318 315 314 319 318 315 313 312 313 313 312 312 312 314 314 315 315 314 314 315 314 314 314 315 314 314 315 314 314 314 313 313 313 312 311 311 310 309 309 308 308 308 308 308 308 308 308 307 306 306 305 305 305 304 303 302 301 300 299 299 298 298 298 298 298 298 298 298 297 298 298 298 298 298 298 298 298 298 298 297 296 295 294 293 292 292 292 292 291
315 316 316 316 316 316 315 315 317 316 316 317 315 314 314 314 314 314 314 313 313 314 313 314 314 314 315 315 315 315 315 315 314 315 315 314 315 314 313 313 313 312 311 311 310 309 309 309 308 308 308 308 308 308 307 306 305 305 304 303 302 301 301 300 300 299 299 298 298 298 298 298 298 298 298 298 297 297 297 297 297 297 298 297 297 297 297 297 296 295 294 292 292 292 292 292 291
315 317 318 316 316 316 316 316 315 317 321 318 315 317 318 318 317 315 315 315 314 313 313 313 313 314 314 314 316 316 316 315 315 315 315 315 315 314 313 313 313 312 312 311 311 310 309 309 308 308 308 308 308 307 307 306 305 305 304 304 303 302 301 300 301 301 300 300 300 299 298 298 298 298 297 297 297 297 297 297 297 297 297 297 297 297 297 297 296 295 293 292 291 291 291 291 291
315 320 322 318 317 317 318 318 317 321 325 318 316 320 319 319 319 317 316 317 316 315 314 313 312 313 313 314 316 317 316 315 315 314 315 315 315 314 313 313 313 313 312 311 310 309 309 309 308 308 308 308 307 307 306 306 305 305 304 304 304 304 303 303 303 302 302 301 300 299 299 298 297 297 297 297 297 297 297 297 297 297 297 297 297 297 297 297 296 294 293 292 291 291 291 291 290
316 322 327 322 320 321 320 320 321 324 323 317 317 320 319 318 318 318 318 319 319 317 317 315 312 312 313 315 317 317 317 316 315 314 315 315 315 315 314 314 314 313 312 311 310 309 309 308 308 308 308 307 307 307 306 306 305 305 304 304 303 303 304 304 303 303 302 301 299 299 298 298 297 297 297 297 297 296 296 296 297 297 297 297 297 297 297 296 296 294 293 291 291 291 290 290 290
318 321 323 323 321 322 320 319 321 323 320 317 319 319 318 318 317 317 317 316 317 316 317 316 314 312 313 316 317 316 317 316 315 315 315 315 315 315 314 314 314 313 312 311 310 309 308 308 308 307 307 307 307 307 306 306 306 305 304 303 303 303 302 302 302 302 301 300 299 298 297 297 297 297 297 297 296 296 296 296 296 296 296 296 296 296 296 296 295 294 292 291 291 290 290 290 290
318 318 322 326 325 322 319 317 319 323 320 318 320 319 318 318 317 317 316 315 316 315 315 316 314 313 314 315 317 316 316 316 315 315 314 315 314 314 314 314 313 312 311 310 310 309 308 308 308 307 307 307 307 307 306 306 305 305 304 303 303 303 302 301 300 300 300 299 299 298 297 297 297 297 297 297 296 296 296 296 296 296 296 296 296 296 296 296 295 294 292 291 291 290 290 290 290
315 318 323 326 327 325 324 324 321 320 318 318 320 319 317 318 318 317 316 316 316 315 315 315 313 313 314 316 316 316 317 316 315 315 314 315 314 314 314 313 313 312 311 310 309 309 308 308 308 307 307 307 307 307 307 306 306 306 305 304 303 303 302 301 300 299 299 298 298 298 297 297 297 297 296 296 296 295 296 296 296 296 296 296 296 296 296 296 295 293 292 291 290 290 290 290 289
315 322 324 322 326 327 325 323 319 318 318 319 320 318 316 317 317 316 316 315 315 315 315 317 316 313 313 316 317 316 317 316 315 314 314 314 314 314 313 313 312 311 310 310 310 309 309 308 308 308 308 308 308 307 307 307 307 307 306 304 304 303 302 301 301 300 300 299 298 297 297 296 296 296 296 296 295 295 295 295 295 296 296 296 295 295 295 295 294 293 291 291 290 290 290 289 289
317 322 321 319 322 321 320 321 321 319 318 318 317 317 316 315 316 316 316 317 317 315 314 315 316 313 313 316 317 316 317 316 315 315 314 315 314 314 314 313 312 312 311 312 311 311 310 309 309 309 309 309 308 308 307 307 308 308 307 306 305 303 302 301 301 300 300 299 299 298 297 297 296 296 296 296 296 295 295 295 295 295 295 295 295 295 295 295 294 292 291 290 290 290 289 289 289
316 319 320 319 319 318 319 323 324 319 319 320 315 316 317 316 318 319 317 317 317 314 313 313 314 314 315 316 317 316 316 315 315 315 315 315 315 315 314 314 313 312 312 312 312 312 311 311 310 310 310 309 308 308 308 308 308 309 308 307 306 304 303 302 301 300 300 299 299 298 297 297 297 297 297 297 296 296 295 295 295 295 295 295 295 295 295 295 293 292 291 290 290 290 289 289 288
314 316 319 318 322 325 321 322 321 317 324 325 315 317 321 317 318 323 319 315 313 312 312 313 313 316 317 316 316 315 315 315 315 315 315 315 315 315 315 314 313 312 313 313 313 313 312 312 311 311 310 309 309 309 308 309 309 309 308 307 306 305 304 302 301 300 300 299 299 298 297 297 297 297 297 297 296 296 295 294 294 295 294 295 295 295 295 294 293 292 291 290 290 289 289 288 288
315 316 318 315 320 325 318 319 320 316 322 322 315 320 325 317 315 319 317 315 314 312 312 311 311 314 315 314 314 315 315 315 315 315 315 315 315 315 314 313 312 313 313 313 313 313 313 312 312 311 311 310 309 309 309 309 309 309 308 308 307 306 304 302 301 300 300 299 298 298 297 297 296 296 296 296 296 295 294 294 294 294 294 294 294 294 294 293 292 291 290 290 289 289 288 288 288
317 315 317 315 318 320 317 320 321 316 317 318 316 319 321 316 316 316 315 315 315 314 313 311 310 312 313 312 313 315 314 315 316 315 316 315 315 314 314 313 312 312 313 314 314 313 313 313 312 312 311 310 310 309 309 309 309 308 308 308 307 307 306 304 303 302 300 299 298 297 296 296 295 295 295 295 295 294 294 294 294 294 294 294 294 294 294 293 292 291 290 290 289 288 288 288 288
318 318 317 316 317 319 320 322 322 318 318 318 316 317 316 315 317 318 317 317 316 317 316 313 311 310 310 311 313 314 315 316 316 316 316 316 315 314 313 313 313 313 313 314 313 313 313 313 313 312 312 311 311 310 309 308 308 309 308 308 308 308 307 306 304 302 300 299 298 297 296 295 295 294 294 294 294 294 293 293 293 294 294 294 294 294 293 292 291 290 290 289 289 288 288 288 288
315 317 316 317 320 321 321 320 320 319 318 318 317 317 316 315 315 316 317 317 318 318 316 314 313 311 310 311 312 313 314 316 316 316 316 315 315 314 313 313 313 313 313 313 313 313 312 313 312 312 312 311 311 310 309 308 308 308 309 308 308 308 307 306 304 302 301 299 298 297 296 295 294 294 294 294 294 293 293 293 293 293 293 293 293 293 293 292 291 290 289 289 288 288 288 288 288
311 313 315 316 317 321 322 319 319 319 318 318 318 317 317 316 315 315 315 316 317 317 315 314 313 311 310 311 312 312 313 315 316 316 316 315 315 314 313 313 313 313 313 313 313 313 312 312 312 312 312 311 310 310 309 308 308 308 308 308 308 307 307 306 305 303 302 301 299 298 296 296 295 294 293 293 293 293 293 293 293 293 293 293 293 293 292 291 290 290 289 289 288 288 288 288 288
313 314 316 314 313 318 320 316 317 318 317 317 317 317 317 315 316 316 314 316 318 317 316 315 313 310 310 311 312 312 313 314 315 315 315 315 314 314 313 313 313 312 313 313 313 313 312 312 312 312 311 311 310 309 309 309 308 308 308 308 308 307 306 305 305 304 303 301 300 298 297 295 294 294 294 293 293 293 293 293 293 293 293 293 293 292 292 291 290 289 289 288 288 288 288 288 288
315 315 315 315 314 316 317 315 316 316 315 316 316 316 317 315 315 315 313 315 317 317 317 316 311 309 311 313 313 312 312 313 314 314 315 314 314 313 313 313 312 312 312 312 312 312 312 312 312 311 311 311 310 310 310 309 308 307 307 308 308 307 305 303 303 304 303 302 300 299 297 296 295 294 293 293 293 293 293 292 292 292 292 293 292 292 291 290 289 289 288 288 288 288 288 288 288
Wind_Speed
4 4 4 3 2 1 1 2 1 2 2 2 4 2 4 4 2 2 2 1 2 3 7 7 5 6 6 5 9 9 6 3 4 3 4 4 11 22 21 19 18 17 18 18 17 15 14 12 11 11 10 9 8 7 6 6 5 4 3 4 4 3 3 4 4 4 4 5 5 5 6 6 7 7 7 7 7 7 6 6 7 6 7 7 7 6 6 6 6 6 6 7 8 8 9 10 10
4 5 5 5 3 1 2 2 1 2 3 3 5 3 4 2 2 2 4 3 4 6 8 7 7 8 8 8 11 6 5 3 2 4 6 8 16 23 21 19 18 18 18 17 15 13 12 10 9 9 8 7 7 7 6 5 5 4 4 4 4 4 4 5 5 5 5 5 6 6 6 7 7 7 7 7 7 8 8 8 8 7 7 7 7 7 7 7 8 8 9 10 10 10 11 12 13
4 5 6 6 4 1 3 3 1 0 1 3 5 4 2 3 2 1 2 5 9 10 8 6 6 5 4 5 5 1 1 4 4 5 7 12 18 23 22 20 19 18 16 16 14 12 11 9 8 7 6 6 6 6 5 4 4 4 3 2 2 2 3 3 4 4 4 5 5 6 6 7 7 7 7 7 7 8 8 8 8 8 8 8 8 8 9 9 10 10 11 11 12 12 13 13 14
5 5 6 5 4 2 2 2 2 3 2 4 3 5 2 5 5 3 6 8 10 9 6 5 4 2 1 2 3 2 5 6 6 5 6 13 15 19 22 20 19 16 14 14 13 12 10 9 8 7 6 5 5 4 4 4 3 3 3 2 2 2 2 2 2 2 2 3 4 4 4 5 5 5 5 5 6 6 6 6 7 7 8 8 9 9 10 10 10 11 12 12 13 13 14 14 15
6 5 5 4 3 2 2 1 1 2 4 4 2 6 4 7 7 5 7 8 7 6 6 7 3 1 2 2 3 2 6 7 6 5 6 12 15 18 21 20 19 16 15 13 12 12 10 10 9 8 7 6 6 5 4 4 4 3 3 3 2 2 2 1 1 1 2 2 2 3 3 4 4 4 4 4 5 5 5 5 5 6 6 7 8 8 9 10 10 11 11 12 13 14 14 15 15
5 5 5 4 2 1 2 1 2 3 6 5 3 5 5 7 9 9 9 8 6 6 7 8 5 4 3 3 5 5 7 6 4 6 6 10 15 18 20 20 18 17 16 14 13 12 11 11 10 9 7 7 6 6 6 6 5 5 4 4 3 2 2 1 1 0 1 2 2 3 3 3 4 4 4 5 5 5 5 5 5 5 6 6 7 8 8 9 10 10 10 11 11 12 13 14 14
4 5 4 2 1 0 2 3 4 4 6 5 5 4 6 8 13 13 9 7 4 6 7 8 8 7 2 3 5 7 9 7 5 4 5 9 13 17 19 19 18 17 15 14 14 13 13 12 11 9 8 7 7 8 7 7 6 5 4 3 2 2 1 0 1 1 2 2 3 3 4 4 4 5 5 5 5 5 5 5 5 5 5 6 6 7 8 9 9 10 10 10 11 11 12 13 13
4 4 3 3 1 2 2 4 5 4 5 4 4 5 10 14 17 13 7 5 3 6 8 8 10 5 2 5 5 8 12 10 9 7 6 8 11 15 18 19 17 17 16 16 15 14 14 12 10 9 8 9 9 9 8 7 6 5 4 3 2 1 0 1 2 2 2 3 3 4 4 4 5 5 5 5 5 5 5 5 4 4 4 4 5 5 5 6 7 7 8 8 9 10 10 11 12
4 3 2 2 1 2 2 4 4 4 6 6 2 5 14 19 17 11 6 4 4 7 9 11 12 5 3 8 5 8 13 12 12 11 9 9 11 14 16 18 18 17 17 17 16 15 14 12 10 9 9 9 9 9 7 7 6 5 4 3 2 1 1 0 1 1 1 2 2 3 3 3 4 4 4 4 4 4 4 5 4 5 5 5 5 5 5 5 5 6 6 6 7 7 8 9 9
2 1 1 2 2 2 4 3 4 4 6 6 5 8 15 17 14 11 9 5 6 7 10 12 10 6 4 7 7 9 12 12 12 11 11 11 12 14 15 17 18 18 18 18 17 16 15 12 11 9 9 9 9 9 8 7 6 5 4 3 3 2 2 1 1 0 0 1 1 1 2 2 2 3 3 3 3 4 4 4 5 5 5 6 6 6 7 7 8 8 8 8 8 8 7 8 8
1 1 1 2 1 2 4 4 4 5 6 3 3 8 14 14 10 9 10 6 8 10 11 12 7 8 5 3 7 8 10 10 11 10 11 13 13 15 16 17 18 19 18 18 18 16 15 13 10 9 9 9 9 8 7 7 6 5 4 4 4 3 3 3 2 2 1 1 1 1 1 1 1 1 2 2 2 3 3 4 4 5 5 5 6 7 7 8 8 9 9 10 10 10 10 9 9
0 1 2 2 2 4 4 4 5 6 6 3 2 6 10 11 7 6 9 7 10 11 14 15 6 7 6 3 7 9 11 11 11 11 11 13 14 15 17 17 18 19 19 19 18 17 15 13 11 10 11 10 9 8 7 7 6 5 4 4 4 4 4 3 3 3 2 2 2 1 1 1 1 1 1 1 1 2 2 3 4 5 5 5 6 6 7 7 8 8 8 9 9 10 11 11 11
2 0 4 1 3 3 3 4 6 6 5 3 3 4 7 8 6 6 8 7 12 11 11 17 9 7 6 3 7 12 14 13 13 13 13 14 15 16 17 18 19 20 20 19 19 17 16 14 12 12 13 12 11 9 8 7 6 5 4 3 3 3 4 3 3 3 2 2 2 1 1 1 1 1 1 1 1 2 3 3 4 5 6 6 7 8 8 9 9 9 10 10 10 10 10 11 11
3 2 2 2 2 1 3 3 5 4 4 4 1 6 7 4 5 8 6 4 11 11 8 15 14 7 6 5 7 16 15 14 16 15 15 15 16 17 18 19 20 20 21 20 20 19 18 16 15 15 15 14 12 10 9 8 6 5 4 3 3 3 3 3 3 3 2 2 2 1 1 1 1 1 1 1 2 3 4 5 6 7 7 8 10 10 11 11 12 12 12 12 12 12 11 11 11
4 4 1 1 3 3 3 3 5 4 4 4 5 7 6 3 4 7 7 4 8 10 6 12 17 7 5 9 10 16 15 14 16 16 16 16 17 18 19 20 21 22 22 21 21 21 20 19 18 17 17 16 13 11 10 9 7 6 5 4 4 4 3 3 2 2 2 2 2 1 1 0 0 1 2 2 3 4 5 6 7 8 9 10 11 12 13 14 14 14 14 14 14 13 13 12 11
5 3 2 1 3 2 3 3 3 4 5 4 7 6 3 3 6 6 8 7 5 8 9 13 19 11 7 12 12 12 13 14 16 16 17 18 19 20 21 22 22 23 23 23 23 23 22 21 20 19 19 17 15 13 12 10 9 7 6 6 5 5 4 3 3 3 2 2 2 1 1 1 0 1 2 3 4 5 6 6 8 9 10 11 12 13 13 14 15 15 15 15 15 14 14 13 12
4 1 2 2 3 2 3 3 1 3 5 4 6 6 3 3 6 7 8 10 8 8 11 12 17 18 14 14 13 11 12 14 15 17 18 18 19 20 22 23 24 25 25 25 25 25 24 23 22 21 20 18 16 15 14 12 10 9 8 8 7 7 6 5 4 4 4 3 2 2 2 3 2 1 2 3 4 5 6 6 7 8 9 10 11 12 12 13 14 15 15 15 15 15 14 14 13
4 2 2 3 3 4 5 4 4 2 3 3 6 8 6 3 6 8 7 10 12 11 13 14 14 18 20 19 18 15 14 16 18 19 19 20 20 21 22 23 25 26 26 27 27 27 26 25 24 23 21 20 18 17 16 14 12 11 10 10 10 9 8 7 7 6 6 5 5 5 5 5 4 3 2 3 3 4 4 5 6 7 8 9 9 10 11 12 13 14 14 15 15 15 14 13 13
6 3 2 4 5 6 5 4 5 1 2 5 6 8 8 6 6 7 5 8 11 10 13 15 16 18 21 23 22 20 20 20 21 22 23 23 22 22 22 23 24 26 26 26 26 27 27 27 26 25 23 21 20 19 18 16 15 14 13 13 12 12 11 10 9 9 8 8 8 8 7 6 5 4 3 3 3 3 3 4 5 6 6 8 9 10 11 11 13 13 14 15 14 14 14 13 13
8 5 2 7 7 6 10 8 4 2 3 3 1 5 8 8 8 7 6 8 8 10 13 14 19 24 24 25 24 23 24 24 25 26 26 26 26 25 24 24 25 25 25 24 26 27 28 28 28 27 24 23 22 21 20 19 17 16 16 15 15 14 13 12 11 11 10 10 9 8 8 7 6 5 4 4 3 3 4 4 5 6 7 8 9 10 10 11 12 13 14 14 14 14 13 13 12
6 7 5 7 5 4 12 12 7 5 4 4 3 3 6 9 10 9 7 5 6 14 22 21 23 28 28 28 28 27 27 26 28 28 29 29 29 28 27 26 24 24 24 25 27 28 28 28 28 28 26 25 24 24 23 21 20 19 18 17 17 16 15 14 13 12 11 11 11 10 9 8 7 6 5 5 5 5 5 6 6 7 8 8 9 10 11 11 12 13 14 14 14 14 13 13 13
4 8 13 14 9 5 13 15 10 10 7 6 5 4 8 8 10 15 12 7 12 19 22 22 22 24 26 29 29 30 30 29 29 30 30 31 31 30 29 28 26 25 26 28 29 28 28 28 29 28 28 27 26 26 25 23 22 21 20 19 19 18 17 16 15 14 13 13 12 11 11 10 9 8 7 7 7 7 7 8 8 8 9 9 10 11 11 12 13 14 14 14 14 14 13 13 13
7 8 13 18 17 10 16 17 13 13 9 7 6 6 9 7 10 17 19 22 28 27 20 16 15 16 20 27 31 32 32 32 31 30 29 29 29 29 29 28 28 27 28 29 29 29 29 30 30 30 29 28 28 28 27 26 24 23 22 21 20 19 18 17 16 15 15 14 14 13 12 12 11 10 9 9 9 9 9 9 9 9 10 10 11 11 12 13 14 15 15 15 14 13 13 12 13
12 7 8 15 19 16 20 19 16 16 13 13 11 8 10 10 10 12 21 34 36 31 26 21 20 18 17 22 30 33 34 33 32 31 29 27 26 25 25 26 26 27 29 29 30 30 30 30 30 31 30 30 29 29 29 28 26 25 24 23 22 21 20 19 18 17 16 15 15 14 14 13 13 12 11 10 10 10 10 10 10 10 10 11 11 12 12 13 14 15 15 15 14 13 12 12 11
10 8 9 11 15 17 19 17 18 18 16 18 13 11 17 19 14 13 26 38 36 31 29 27 25 26 25 23 26 30 33 34 33 32 31 30 28 27 27 27 28 29 31 30 30 30 30 30 31 31 31 31 31 31 30 29 28 27 25 25 24 23 22 20 19 18 18 17 16 16 15 15 14 13 12 12 12 12 11 11 11 11 11 11 12 12 13 13 14 15 16 15 14 13 13 12 11
8 10 10 9 12 17 18 19 22 21 18 16 10 13 21 22 14 17 35 41 36 34 32 30 27 28 31 30 29 30 32 33 34 34 33 32 31 31 31 31 31 32 32 31 31 31 30 30 31 31 31 32 32 32 32 31 30 29 27 26 25 25 23 22 21 20 19 18 17 17 17 16 15 14 14 13 13 12 12 11 11 11 11 11 12 12 13 14 15 15 16 16 15 14 13 13 12
6 9 11 13 17 20 21 21 27 24 19 17 13 12 18 15 6 12 36 35 24 27 28 29 29 30 33 33 34 33 34 35 35 35 35 35 34 35 35 34 35 35 33 33 33 32 31 31 31 30 30 32 34 34 33 32 32 30 28 27 27 26 25 23 23 21 20 19 18 18 18 17 16 15 15 14 14 13 12 11 11 11 11 12 12 13 13 14 15 16 16 16 16 15 15 15 14
8 9 11 17 16 20 23 20 26 20 14 21 18 9 13 8 5 19 41 32 16 19 21 23 26 32 34 34 36 35 36 37 35 36 37 37 37 37 37 36 37 37 36 35 34 33 33 33 32 31 31 31 34 35 34 34 33 32 30 29 28 28 26 25 24 23 21 20 20 19 19 18 17 17 16 15 14 13 13 12 12 11 11 12 12 13 13 14 15 15 16 16 16 15 15 15 15
10 7 6 15 9 13 24 20 24 17 8 17 13 3 11 6 13 34 45 35 24 23 23 23 25 29 33 35 37 37 38 37 36 38 38 37 36 36 37 36 37 38 37 35 35 35 34 34 33 33 31 31 34 35 35 35 34 33 32 30 29 29 27 27 25 23 23 22 21 20 20 19 18 18 17 16 16 14 13 12 12 12 12 12 12 13 13 14 14 15 15 15 15 15 15 15 15
10 3 2 9 6 8 19 15 18 15 8 13 14 1 11 10 22 38 38 32 30 27 28 30 28 29 30 33 36 37 38 37 38 39 38 37 36 36 36 35 37 38 37 37 37 36 35 35 34 34 33 32 33 35 36 36 35 34 33 32 30 30 28 28 27 24 24 23 22 22 21 20 19 19 18 17 17 15 14 13 12 12 12 12 12 13 14 14 14 14 14 14 14 15 16 17 17
4 2 1 4 3 7 12 6 7 6 6 17 16 3 11 11 20 30 29 27 26 26 31 33 32 33 32 32 35 36 37 37 39 39 38 39 37 37 36 36 38 38 39 39 38 37 36 36 35 35 34 33 33 35 37 37 36 35 34 33 32 30 30 29 28 26 25 25 24 24 22 21 21 20 19 18 17 16 15 13 13 12 12 12 12 13 14 14 14 14 14 14 14 14 15 17 19
1 1 4 3 4 7 11 8 7 6 5 16 14 3 11 14 19 28 27 23 25 27 31 32 33 35 34 35 36 37 37 37 39 40 41 41 39 38 36 37 38 39 39 39 38 38 38 37 36 37 35 34 33 34 36 37 36 36 35 34 32 31 31 30 29 27 26 26 26 25 24 23 22 21 20 19 18 17 16 14 13 12 12 12 13 14 14 14 14 13 14 14 14 15 16 17 19
2 4 6 5 5 6 8 8 6 9 6 9 10 5 8 10 13 22 19 18 24 25 28 31 32 34 35 36 37 38 38 38 40 42 43 42 40 39 37 37 38 38 39 40 40 40 39 38 38 38 37 35 34 34 35 37 37 36 35 35 34 33 32 31 30 29 28 28 27 26 25 24 23 22 21 20 19 18 16 15 14 13 12 13 13 15 15 14 14 13 13 14 15 16 18 19 20
4 3 5 6 7 6 6 6 1 8 8 7 11 8 11 12 9 15 15 14 18 22 26 30 32 34 35 36 37 39 39 40 43 45 44 43 40 39 38 37 37 38 39 41 41 40 39 39 39 39 38 36 34 34 34 35 37 37 36 36 35 34 33 33 32 30 29 29 29 27 26 25 24 23 22 21 20 19 17 16 14 13 13 13 14 15 15 14 14 13 13 14 15 16 19 21 22
4 5 5 5 7 7 10 8 2 7 6 6 8 8 15 17 13 20 26 24 18 19 25 29 32 34 35 36 38 40 42 43 47 48 45 42 39 39 39 37 36 38 40 41 41 41 41 41 41 40 39 38 35 34 34 35 37 38 38 37 36 36 35 35 33 32 31 30 30 29 27 26 25 24 23 22 21 20 19 17 15 14 13 14 14 15 15 15 14 13 13 13 14 16 19 21 23
8 8 6 7 7 8 12 11 6 8 5 6 10 12 15 18 17 19 30 34 25 23 25 26 31 34 36 38 40 42 42 46 50 48 44 41 39 39 40 38 36 38 39 41 42 42 43 43 43 41 40 38 37 36 36 37 39 40 41 40 40 39 38 36 35 34 33 32 31 30 29 27 26 25 24 23 23 22 20 18 16 15 14 14 15 16 16 15 15 14 13 13 14 15 18 20 23
10 9 9 10 9 11 13 11 7 8 6 8 12 15 15 17 19 16 24 28 22 23 23 25 30 34 37 39 41 43 45 49 51 46 43 39 38 38 39 37 36 39 40 41 43 43 44 45 44 43 41 40 39 38 38 39 40 41 42 43 42 41 39 38 36 35 34 34 33 32 30 29 27 26 25 25 24 23 21 19 17 15 15 15 15 16 16 16 15 14 13 13 14 16 18 20 22
11 10 10 10 8 12 15 9 7 7 5 8 11 14 16 16 18 17 18 15 14 22 22 25 31 32 36 39 41 45 47 50 48 44 42 38 36 37 37 37 36 39 41 42 44 44 44 45 44 43 41 41 40 40 39 39 39 40 41 41 41 41 40 39 37 36 35 35 35 34 32 30 29 27 26 26 25 24 22 20 18 16 15 16 16 17 17 17 16 15 14 13 14 16 18 21 23
10 8 8 8 7 11 12 8 7 4 5 8 9 12 13 14 17 16 14 12 17 29 29 32 35 30 33 39 41 45 46 47 45 43 41 37 35 35 35 36 36 38 40 42 43 43 44 45 44 43 42 41 41 40 40 39 39 39 39 39 38 38 39 38 37 35 36 36 36 35 33 32 30 29 28 27 27 25 23 21 19 17 17 17 17 17 18 18 17 16 15 14 14 16 17 20 22
8 9 8 9 7 8 10 6 4 3 4 6 7 9 9 9 13 14 18 21 23 32 35 39 41 34 36 43 43 44 44 43 43 41 38 35 33 32 34 35 35 38 41 42 43 44 44 45 44 43 42 42 41 40 40 39 39 39 39 39 38 38 38 37 37 37 37 37 37 36 35 33 31 30 29 28 28 26 24 22 20 19 18 18 17 18 18 18 18 17 16 15 15 16 18 19 20
11 11 8 11 11 11 13 7 4 4 4 5 6 9 8 8 13 14 16 20 21 27 31 34 40 40 42 47 46 46 46 45 44 41 36 33 32 33 34 34 35 38 40 42 44 44 44 43 43 42 42 42 41 41 40 41 41 41 41 41 40 40 39 39 39 40 41 40 40 38 36 34 33 31 30 29 28 27 25 23 21 20 19 18 17 17 18 18 18 17 16 15 16 17 18 20 20
11 8 11 15 15 13 14 8 7 5 6 4 3 8 8 8 14 15 11 10 12 17 20 24 35 40 38 43 48 48 47 45 43 40 36 34 33 33 33 34 36 38 40 41 41 41 41 41 41 41 42 42 41 41 41 42 42 42 43 44 45 45 45 45 45 45 44 42 41 40 37 36 34 33 31 30 29 28 26 24 23 21 20 18 18 18 18 19 19 18 17 16 17 18 19 20 21
9 6 11 14 12 11 11 6 3 4 6 4 3 3 8 5 8 11 9 8 11 11 12 17 27 32 33 39 46 45 43 41 37 35 34 33 34 34 35 35 36 37 37 39 39 39 39 40 40 41 41 41 41 41 42 42 43 43 44 45 46 47 48 48 46 45 43 41 40 39 38 37 35 34 32 31 30 29 28 26 24 22 20 19 18 18 18 19 19 19 17 16 17 19 21 22 21
8 3 7 9 8 9 7 4 4 4 5 4 2 2 8 11 7 10 11 11 12 12 12 13 19 27 32 37 42 41 40 39 35 32 32 33 35 36 36 35 34 34 35 37 38 38 39 39 39 40 40 41 41 41 42 42 43 43 45 45 46 47 47 46 44 42 41 41 40 39 39 38 36 35 33 32 32 31 29 27 25 23 21 20 19 18 18 19 20 19 17 17 18 20 22 22 22
6 1 4 4 4 4 1 1 3 2 5 5 3 5 4 15 8 10 13 12 12 14 15 14 15 25 32 36 40 40 38 39 36 33 32 33 36 36 35 33 32 32 34 35 35 36 37 38 38 39 40 41 41 41 41 41 41 42 44 45 46 46 46 45 44 42 41 41 41 40 39 38 37 36 34 33 33 32 30 28 26 24 22 21 19 19 19 20 20 19 17 17 18 20 22 23 22
4 4 3 4 4 3 5 1 0 3 5 6 5 7 3 15 9 7 8 9 10 13 14 13 15 25 32 35 39 39 37 38 37 36 34 34 35 34 32 31 31 31 32 33 34 35 36 37 39 40 40 40 40 40 40 39 40 41 43 44 45 45 45 45 44 44 43 42 42 41 40 39 38 36 35 34 33 32 31 29 27 25 23 22 20 19 19 20 20 19 18 17 19 21 22 23 22
1 6 5 6 5 5 4 1 4 2 9 6 9 12 7 10 6 7 6 6 11 11 9 11 14 20 30 36 38 37 35 34 35 35 34 33 32 31 31 31 30 30 31 33 35 35 37 38 39 40 39 40 39 39 39 38 38 39 41 43 43 44 45 45 45 45 44 44 43 42 41 40 39 37 36 35 34 33 32 30 28 26 24 23 21 20 20 21 21 19 18 18 20 21 23 23 21
4 5 4 4 5 4 5 4 4 2 10 4 12 14 11 10 6 2 3 4 9 11 9 11 12 16 27 36 36 34 31 30 31 33 32 32 31 31 31 31 30 31 32 34 35 36 37 38 39 40 40 39 39 39 38 37 37 37 39 41 42 43 44 44 45 46 46 46 45 44 43 41 40 39 38 36 35 34 33 31 29 27 25 23 22 21 21 21 21 19 19 19 21 22 23 22 20
5 4 4 1 5 3 3 4 0 4 8 5 10 9 8 13 7 2 7 6 5 8 9 13 14 16 28 34 33 31 30 29 30 31 31 32 32 31 32 32 32 32 33 35 36 37 37 38 40 40 40 40 39 39 38 37 36 35 37 39 41 42 43 44 45 45 46 46 46 45 45 44 43 41 40 38 36 35 34 32 31 28 26 24 22 21 22 22 21 20 20 20 22 22 23 22 19
6 6 6 4 3 1 3 4 3 5 7 5 6 7 5 10 5 7 13 11 11 14 17 23 23 23 29 33 31 28 28 28 29 30 31 31 32 32 32 31 32 33 34 36 37 37 38 39 41 41 40 40 40 39 39 37 35 34 35 36 39 42 43 44 45 46 46 46 47 47 46 46 44 43 41 38 36 35 34 33 31 29 26 25 23 22 22 22 21 20 21 21 22 23 22 21 18
7 6 6 5 4 4 4 5 7 7 6 6 3 6 5 6 3 8 11 11 13 18 25 29 29 28 29 31 31 29 28 28 29 30 31 30 30 31 31 31 32 32 34 37 37 38 39 40 41 41 40 41 41 41 39 37 34 33 34 36 38 40 42 43 45 45 46 46 47 47 47 46 45 43 40 38 36 35 35 33 32 30 28 25 24 23 23 22 21 21 21 22 22 22 21 20 18
4 5 5 4 5 7 5 6 8 3 3 6 3 5 6 5 6 8 8 10 10 13 20 21 24 29 28 28 32 33 30 28 29 31 30 29 29 30 31 31 31 32 34 37 38 38 39 41 42 41 40 41 42 42 40 37 35 34 35 35 36 38 41 43 45 46 46 46 46 46 46 46 45 42 40 37 36 36 35 34 32 30 28 26 25 24 23 22 22 22 22 23 23 22 21 19 17
2 4 4 5 4 7 5 6 4 2 4 8 6 7 6 6 10 8 6 10 8 7 11 12 18 28 28 28 34 34 30 29 31 32 29 29 29 29 30 31 31 33 34 36 37 37 38 40 42 41 41 42 43 43 41 38 37 36 36 36 36 37 39 41 43 45 46 46 46 46 46 45 44 42 40 38 37 36 35 34 33 31 28 27 26 25 23 22 22 22 23 23 23 22 20 19 17
6 4 6 1 3 2 3 1 2 2 7 8 9 14 10 6 10 5 3 5 7 8 10 10 15 23 23 27 34 34 30 29 29 30 29 29 29 28 28 29 29 31 33 35 36 37 38 40 42 41 42 43 42 43 43 42 40 38 37 37 37 36 37 39 41 43 45 45 46 46 46 46 45 43 41 39 37 37 36 35 33 31 29 28 26 25 24 23 23 23 24 23 23 22 20 19 18
5 3 2 4 1 2 2 3 3 5 8 7 10 16 12 8 10 8 4 6 9 10 12 13 14 15 17 26 35 34 28 26 26 28 29 29 29 29 28 28 29 30 32 35 37 39 39 40 42 44 44 43 43 44 45 45 43 40 38 38 38 38 38 39 41 43 44 44 45 46 46 46 45 44 42 40 39 38 36 35 33 32 30 28 27 25 24 23 24 24 24 24 23 21 20 19 18
2 1 2 1 3 4 3 4 3 5 9 8 10 12 11 9 7 7 8 8 9 9 10 11 11 14 21 28 34 32 27 26 27 28 30 30 30 30 30 29 28 29 31 35 39 41 41 40 43 46 46 46 46 46 46 46 45 42 40 40 42 42 41 41 41 42 43 43 44 45 46 47 46 46 44 42 40 38 37 35 34 32 31 29 27 25 24 24 24 25 24 24 23 21 20 19 19
3 2 3 3 2 2 1 3 3 4 7 7 8 8 10 9 3 1 6 5 7 8 8 9 11 17 26 29 30 31 30 30 30 30 30 30 29 29 30 30 29 31 34 37 40 43 42 42 44 47 49 49 49 48 47 47 46 46 44 42 44 45 45 45 44 43 44 43 44 45 46 47 47 46 45 44 42 39 37 36 34 33 31 29 28 26 25 25 25 25 25 24 22 21 20 20 20
7 7 8 7 6 3 3 6 4 3 5 6 8 9 9 9 6 4 6 5 5 6 7 7 11 18 25 30 35 36 33 33 33 32 32 30 27 26 27 28 30 33 36 38 40 43 44 43 42 46 50 51 50 49 48 48 48 49 48 45 46 47 49 49 47 46 45 44 44 45 46 47 48 47 46 45 42 40 38 37 36 34 32 30 28 27 26 26 26 26 25 24 22 21 21 21 21
Wind_Direction
212 217 219 203 231 199 95 29 349 315 67 271 269 231 261 250 195 93 86 109 106 68 89 101 84 87 88 101 133 121 86 138 172 137 180 195 173 176 176 182 187 186 190 189 191 199 203 204 204 206 207 199 199 202 206 212 211 211 207 207 211 224 244 259 267 278 285 291 295 296 295 296 298 300 304 307 312 315 315 314 317 321 321 318 320 321 324 338 342 332 322 324 326 326 328 328 328
192 200 207 191 174 108 18 62 75 335 40 297 279 203 236 313 46 120 181 167 133 134 117 108 94 91 87 106 133 120 58 85 165 157 156 161 170 176 180 185 187 190 190 188 190 194 199 205 206 210 208 199 199 199 201 206 210 218 219 220 225 239 250 259 263 266 271 272 272 274 274 276 279 284 287 290 294 298 300 301 301 302 303 301 298 298 299 301 305 307 304 310 315 314 315 314 314
174 190 197 176 140 42 351 65 110 33 54 268 275 250 206 71 100 129 151 136 130 136 132 125 110 97 77 96 120 142 118 121 153 161 156 163 171 178 183 187 190 194 191 184 182 186 193 200 204 203 200 192 190 189 186 191 198 203 208 216 220 234 241 246 252 252 255 255 258 259 260 265 269 276 281 284 287 289 291 291 292 291 288 286 283 280 279 282 286 292 294 298 301 301 303 303 304
159 183 187 156 114 31 31 77 163 156 229 240 265 278 204 138 166 136 108 122 130 137 137 127 102 96 64 100 106 87 149 159 169 166 165 163 171 183 184 189 197 199 193 183 179 186 192 197 202 202 203 200 200 200 194 195 199 197 191 199 201 213 225 233 238 240 241 246 251 255 257 264 269 276 281 283 285 284 284 282 282 282 281 279 277 274 273 275 276 278 282 286 288 290 290 291 293
153 165 168 138 91 29 75 86 191 153 232 210 263 276 204 155 163 151 125 128 139 139 134 135 121 147 146 162 166 147 162 173 177 172 173 163 172 187 187 192 200 201 195 187 184 190 196 201 205 207 211 210 212 209 202 199 192 187 174 171 174 180 196 207 223 237 241 251 252 257 263 267 272 275 277 277 277 276 276 275 275 276 278 279 278 278 278 279 278 277 278 280 282 283 283 283 284
156 149 148 120 75 33 88 269 275 262 242 194 254 259 181 165 157 143 128 126 139 138 139 146 140 135 140 177 193 193 170 178 182 167 177 175 178 188 191 195 201 203 195 188 190 195 198 205 209 209 211 208 203 193 184 180 174 166 156 149 143 144 143 157 185 261 266 279 278 280 282 282 285 283 284 281 282 282 282 282 281 281 279 279 279 279 280 281 281 281 280 279 280 279 280 281 281
157 140 125 89 48 33 112 222 240 248 252 200 211 217 170 170 152 137 129 126 136 153 149 154 148 128 137 190 187 198 190 203 200 166 167 180 186 191 196 200 206 202 189 190 196 198 202 206 207 208 210 204 192 182 173 166 161 153 147 137 128 117 95 33 334 319 313 314 308 309 306 306 306 303 303 301 301 299 297 296 292 290 286 284 284 285 285 286 286 287 287 285 284 283 281 281 281
150 125 87 83 44 14 135 243 247 214 254 239 203 182 167 163 153 143 151 158 162 182 162 162 168 147 237 195 179 200 203 217 217 217 201 192 197 197 203 208 212 201 188 195 200 202 206 206 204 207 205 197 187 179 171 163 158 149 143 137 134 115 70 321 316 315 318 317 317 318 318 319 319 320 321 321 322 322 323 325 323 320 317 314 309 307 307 304 305 303 304 303 300 298 295 292 289
134 114 93 99 67 329 270 272 264 234 255 257 236 178 165 161 158 148 156 170 158 184 179 171 176 172 207 194 202 206 207 221 222 228 222 212 208 206 213 214 213 204 195 198 203 206 207 208 206 208 202 192 185 178 172 166 158 151 145 142 144 147 171 240 287 311 318 317 324 324 327 331 333 337 339 342 343 346 350 351 356 355 355 355 353 350 349 347 343 340 337 334 330 326 320 315 309
113 143 119 79 109 289 293 270 247 267 261 226 204 176 162 162 162 153 153 166 168 174 185 179 184 191 177 190 212 213 214 222 221 224 218 215 213 213 218 216 212 204 203 205 207 210 211 212 210 208 203 193 185 180 175 169 159 153 148 142 142 141 148 142 145 118 56 7 0 353 353 355 356 2 356 0 0 359 2 3 6 5 4 2 1 360 358 358 355 355 352 351 349 346 342 336 332
55 241 145 58 97 255 260 254 253 272 279 253 204 172 160 163 159 162 158 157 174 165 172 175 194 207 190 213 219 221 220 219 222 223 215 213 216 218 221 220 212 204 207 211 212 215 214 213 212 213 210 202 191 184 178 169 161 155 147 140 140 140 144 141 137 124 113 94 75 63 39 44 23 27 20 13 8 3 1 0 1 1 2 0 359 359 356 355 354 352 351 350 349 348 346 343 342
334 293 93 104 199 218 225 260 272 276 294 314 242 181 162 166 155 175 173 162 171 161 174 180 190 197 191 249 225 228 224 215 216 218 218 217 219 222 224 224 217 209 210 215 217 218 217 216 215 218 217 209 197 189 183 173 167 158 149 144 142 143 143 139 134 129 124 115 109 105 99 109 91 99 65 43 23 12 6 2 6 5 4 3 3 2 360 357 355 352 351 350 349 347 345 344 343
231 268 89 160 211 207 255 280 277 294 308 290 237 185 164 174 182 205 192 175 169 160 190 195 190 181 190 229 220 229 226 219 216 215 219 221 224 224 225 226 221 215 214 219 221 221 221 220 219 221 219 210 199 192 188 181 176 166 157 152 148 146 140 137 135 132 133 135 141 142 151 158 150 146 110 83 55 36 26 19 16 13 10 8 5 3 1 359 357 354 352 350 348 346 344 343 342
241 307 98 227 261 240 255 271 285 299 290 269 187 160 171 186 212 214 203 187 182 185 215 206 196 188 201 198 218 229 223 220 219 216 218 221 224 225 226 226 225 221 219 222 223 224 224 221 222 222 218 210 201 195 194 190 182 175 170 166 160 155 150 145 141 141 150 156 161 169 170 157 142 110 73 56 51 44 34 26 18 13 9 7 5 2 360 358 356 352 350 347 346 345 343 343 341
266 312 85 204 317 308 244 230 265 260 257 244 160 163 184 207 227 221 220 226 206 202 203 195 193 193 206 199 225 236 227 225 222 216 217 220 222 222 226 226 226 225 222 224 225 226 224 223 223 221 219 212 204 200 199 196 188 185 182 182 178 175 171 168 170 172 182 186 191 199 196 136 82 43 44 37 37 36 30 25 17 11 8 6 4 1 359 355 353 349 346 343 341 341 339 338 336
271 299 65 344 278 280 250 230 251 238 256 228 168 174 193 224 220 222 233 231 226 205 189 189 197 211 225 213 231 239 228 228 223 218 217 219 220 219 223 224 226 226 225 226 227 228 226 225 224 222 221 215 209 204 203 199 193 192 190 193 194 194 196 197 206 213 218 216 222 219 205 232 277 356 18 20 21 22 22 20 14 11 7 4 1 358 356 352 349 346 342 339 336 334 333 331 329
254 215 100 284 243 225 239 229 255 211 250 253 185 189 182 241 225 220 241 234 234 215 203 204 208 221 237 238 242 236 226 227 220 217 216 216 218 218 221 222 223 225 227 228 228 229 227 226 225 224 223 218 213 207 207 204 199 198 197 200 201 204 211 218 230 238 249 255 257 239 228 239 254 305 338 351 359 6 11 14 11 8 2 357 355 351 350 347 344 342 338 335 332 329 328 326 325
196 119 156 237 226 213 208 206 246 204 217 232 205 202 189 234 235 223 245 240 237 232 223 223 222 228 238 245 247 243 233 228 224 221 220 219 220 222 224 225 225 226 229 229 230 230 228 228 227 227 226 221 216 212 210 208 205 204 203 205 206 210 217 225 235 243 253 256 253 248 253 263 272 290 316 334 343 355 2 8 5 359 354 347 345 343 342 341 338 337 334 331 327 324 321 319 318
191 158 170 228 213 220 241 255 264 254 219 207 201 210 205 238 243 217 237 244 232 233 235 228 229 233 236 242 244 244 239 233 232 231 230 231 231 233 232 230 228 229 232 233 235 235 232 230 230 230 229 223 219 216 213 211 210 208 207 208 210 214 220 227 236 243 249 251 251 252 258 264 268 276 291 305 315 331 340 345 344 339 337 334 333 334 333 333 333 333 331 328 325 321 317 313 312
207 195 212 244 225 248 278 292 290 274 256 223 235 225 216 240 235 204 222 252 238 225 234 223 223 232 234 239 240 239 238 236 237 237 238 240 241 241 240 238 236 236 239 240 239 238 235 232 232 233 232 226 221 220 216 214 212 210 210 210 213 216 222 228 235 242 247 249 250 249 248 248 248 252 258 267 275 286 298 305 312 314 316 318 319 321 323 326 329 330 330 328 325 322 318 315 313
198 184 205 239 228 272 275 288 297 278 279 262 278 270 253 253 232 217 217 253 258 233 238 235 235 242 237 234 238 239 238 237 238 240 241 243 243 244 244 245 245 245 243 241 238 238 238 237 235 235 234 229 224 224 221 217 214 213 212 211 214 217 222 228 234 242 245 247 247 245 243 238 235 233 235 244 255 266 277 286 293 299 301 305 307 310 314 319 325 329 330 329 326 324 323 322 320
203 213 223 238 245 276 274 284 288 274 279 270 268 273 273 264 234 230 215 217 249 245 249 250 251 255 247 241 240 237 238 239 240 242 244 246 247 247 247 246 244 241 239 238 239 239 239 238 238 236 235 231 227 226 223 220 218 215 215 214 215 217 223 229 235 241 243 245 244 243 240 236 234 232 235 242 251 261 269 277 283 288 291 294 298 301 306 314 322 327 330 329 329 327 327 327 326
221 248 234 243 246 252 270 277 280 275 269 259 262 263 266 261 251 244 226 234 251 256 258 256 257 261 255 250 242 237 238 240 242 245 247 248 249 249 249 247 245 243 242 242 241 240 239 238 238 236 234 232 228 226 224 222 220 218 216 216 217 220 224 229 234 238 241 242 242 241 239 237 238 238 243 249 256 264 270 275 279 282 285 288 292 297 304 313 322 326 329 330 330 329 328 329 328
214 258 254 255 255 256 268 277 280 273 264 263 266 267 263 247 253 256 239 247 257 259 258 253 256 262 258 248 240 240 242 244 247 250 251 250 251 253 252 251 250 249 247 245 242 240 239 238 237 236 234 231 229 228 226 224 222 220 218 218 219 221 224 228 233 236 238 239 240 240 238 239 241 244 249 254 260 266 271 275 279 282 285 289 293 299 307 316 323 326 328 329 328 326 325 327 328
214 245 260 265 268 267 272 282 282 275 270 270 264 255 256 249 256 267 254 257 261 259 259 256 254 256 256 250 244 242 243 245 248 248 248 249 249 248 247 247 246 245 245 245 244 242 241 239 238 237 235 231 229 229 228 227 225 222 221 220 220 222 224 227 232 235 237 238 238 238 238 241 244 247 251 256 260 264 269 273 277 281 284 289 294 301 310 317 322 324 326 327 328 326 326 327 328
217 235 259 280 282 279 280 282 280 278 274 263 246 250 256 256 266 273 262 261 263 261 260 259 253 250 249 249 248 246 245 246 248 248 249 249 245 243 243 243 243 244 245 244 245 244 243 240 238 237 235 232 229 229 229 228 227 226 224 223 222 224 225 227 231 233 235 236 238 238 239 241 244 248 252 256 258 261 265 269 274 278 282 289 295 301 308 315 320 323 325 327 329 330 329 330 332
246 263 284 286 283 286 284 280 278 278 276 255 227 248 261 257 254 267 267 267 265 261 258 257 251 246 246 246 247 248 249 251 252 252 250 247 243 244 244 241 243 245 244 243 244 244 243 242 239 237 234 231 229 229 229 228 228 228 226 225 224 225 226 227 230 232 234 235 236 237 239 241 244 249 252 255 256 258 261 265 271 276 282 287 293 299 307 314 320 323 326 329 331 332 334 335 337
285 305 309 287 288 295 283 276 276 274 275 251 222 243 275 261 203 247 264 268 262 257 258 255 245 243 244 244 246 247 249 253 254 251 248 248 247 247 246 244 245 244 243 243 243 243 243 243 241 238 234 230 228 228 228 229 229 228 227 226 226 227 227 228 230 231 233 234 236 237 239 241 245 249 251 254 254 255 258 262 268 274 280 286 292 299 307 315 321 325 329 331 331 333 337 337 338
295 310 314 289 309 302 277 269 267 257 259 242 199 257 282 237 226 247 261 266 260 257 258 256 247 244 243 243 246 247 251 253 250 249 250 251 252 251 250 250 249 245 246 245 243 242 243 243 242 240 235 230 229 228 228 229 229 228 228 228 228 228 227 229 231 231 233 234 236 237 239 242 244 247 249 251 252 252 254 258 265 271 279 286 294 301 307 313 319 325 328 329 330 333 334 335 339
295 286 218 284 329 297 271 265 254 244 241 207 159 203 269 238 242 251 264 268 260 255 253 253 249 246 244 243 245 247 251 251 250 252 253 253 252 252 252 252 250 247 246 244 242 242 242 242 242 241 237 232 229 227 227 228 228 228 229 229 229 230 229 230 231 231 232 234 236 237 238 241 243 245 247 248 249 249 252 257 263 271 280 288 295 301 305 309 316 323 327 329 330 332 334 336 338
282 301 216 259 292 276 272 261 218 224 217 179 157 227 257 256 258 258 268 265 255 249 248 249 246 246 245 243 244 247 250 251 255 259 257 255 253 253 253 252 249 246 244 242 243 243 241 241 241 241 239 235 230 227 227 227 228 229 230 230 230 231 231 231 232 231 232 234 235 237 238 240 241 243 244 246 247 248 251 256 263 271 280 288 295 299 301 306 315 322 327 330 330 332 336 337 336
237 245 280 256 210 262 280 271 207 204 205 168 159 220 254 262 267 268 271 262 248 240 245 248 244 244 243 244 245 246 251 254 257 260 260 257 253 252 253 253 250 246 245 243 242 240 239 241 241 241 240 237 232 228 227 227 228 229 231 232 231 232 233 232 233 232 233 234 235 236 237 239 240 242 243 244 246 247 250 253 261 269 278 287 292 295 298 304 314 322 326 328 330 334 337 336 335
291 200 251 260 233 265 289 287 224 188 170 174 191 212 249 259 266 268 266 257 247 234 241 246 244 246 243 244 245 245 252 255 257 260 260 256 253 253 252 252 252 249 247 244 240 238 238 239 239 240 240 238 235 230 227 227 228 230 231 232 232 233 234 233 233 232 233 234 235 236 236 238 239 240 241 243 245 246 248 251 257 265 274 283 288 291 296 303 313 321 323 328 333 337 336 334 333
288 222 237 250 245 263 270 296 302 161 153 199 223 226 246 252 267 269 256 255 249 229 235 242 242 247 246 246 245 245 250 255 261 265 262 258 256 255 252 250 252 250 247 243 240 239 239 239 238 238 238 237 235 232 229 228 228 229 231 232 232 233 234 234 233 232 232 234 235 235 236 237 238 240 240 241 244 244 246 248 253 261 270 278 284 289 295 301 310 317 322 329 335 338 334 332 332
242 226 237 254 248 255 256 270 218 161 171 207 222 237 250 256 265 264 259 261 257 233 233 240 242 246 248 249 248 249 250 255 264 268 265 262 260 257 252 249 249 249 246 242 239 237 237 237 236 236 236 235 234 232 230 228 228 229 229 230 230 231 232 233 233 232 232 233 235 235 235 236 238 239 239 240 241 242 244 246 250 258 266 275 283 288 294 300 306 312 321 330 334 335 332 331 332
235 239 244 255 256 257 256 263 223 176 194 215 219 235 244 253 256 253 256 259 260 253 244 240 242 245 248 250 250 252 252 257 266 268 265 263 262 259 253 248 247 247 245 241 237 234 234 234 233 233 234 235 233 231 229 226 226 227 228 229 228 229 230 232 233 232 232 233 234 235 235 236 237 238 238 239 240 241 243 244 248 255 264 274 282 287 292 296 301 308 318 328 332 333 331 330 331
250 257 258 256 259 265 259 265 246 187 197 223 220 236 242 248 255 249 250 253 258 259 252 243 242 243 246 248 250 251 253 260 266 266 264 264 262 259 252 246 243 242 240 238 236 233 233 232 231 232 233 234 233 231 229 227 227 227 228 229 230 231 231 232 233 232 233 233 234 235 235 236 236 238 238 239 240 242 242 243 247 254 263 272 280 284 289 293 298 305 314 324 330 331 330 330 332
251 253 260 260 248 264 262 259 255 191 196 247 231 242 249 247 256 257 248 243 245 250 251 249 246 242 245 249 251 253 256 261 264 263 263 263 260 255 248 240 238 238 237 236 235 233 232 232 232 233 232 233 234 234 234 232 232 232 233 233 233 234 234 235 236 236 235 234 234 235 235 235 236 238 238 239 240 241 242 243 247 253 261 269 276 281 286 291 295 301 310 320 327 330 331 331 333
244 246 257 264 247 270 268 246 255 203 186 254 247 246 253 249 255 260 252 236 237 244 247 252 253 248 248 252 253 255 258 260 261 262 262 262 257 250 241 236 236 238 238 236 235 233 232 232 232 232 233 234 235 236 236 236 236 236 237 238 237 237 237 238 239 239 237 235 235 235 235 234 236 238 237 239 240 241 241 242 245 251 258 266 273 279 284 289 293 298 306 315 322 326 328 330 333
241 243 251 262 251 265 268 243 253 226 202 256 264 257 256 257 263 263 254 246 245 248 248 252 255 254 255 256 256 256 258 259 260 260 260 258 251 242 235 233 233 235 234 234 233 231 232 232 232 232 233 235 235 236 237 237 236 236 236 237 237 237 238 238 236 235 234 234 234 234 235 234 235 237 237 239 240 239 240 240 244 249 255 264 271 278 283 287 291 295 302 310 317 320 323 326 330
243 234 231 251 249 245 255 269 305 289 279 281 281 284 269 234 248 257 253 248 247 249 250 252 254 253 255 259 260 258 257 258 259 259 255 250 245 239 233 230 231 232 233 233 233 232 233 233 233 234 234 235 235 236 235 234 233 233 232 231 230 231 231 232 231 230 230 231 232 233 234 234 234 235 236 237 238 238 239 240 244 248 253 261 269 276 281 285 289 292 298 305 311 315 319 323 327
259 227 212 238 247 247 256 286 330 315 295 278 240 280 275 205 221 244 251 248 246 245 245 248 251 251 250 254 258 259 258 257 257 256 253 248 244 236 230 228 229 232 233 235 234 234 235 235 234 233 234 234 235 235 234 234 233 232 231 229 227 227 226 227 229 230 231 232 233 233 233 233 234 234 235 236 237 238 238 240 243 247 252 259 265 273 278 282 286 288 294 301 306 311 315 319 324
270 227 207 229 243 256 263 278 309 268 267 272 144 242 276 243 211 230 236 240 249 246 240 243 248 250 246 247 252 256 258 258 254 251 249 245 239 231 227 227 229 233 235 234 233 234 234 234 233 233 233 234 234 234 234 234 234 233 234 234 233 232 232 233 234 235 236 236 236 235 234 233 233 233 234 235 236 237 237 239 242 246 251 256 262 269 274 278 282 285 291 298 303 308 312 317 321
269 236 197 217 236 252 258 241 222 238 277 284 143 132 286 278 235 206 211 222 240 247 247 247 245 246 245 245 248 250 253 258 255 247 243 240 236 231 230 229 231 235 235 232 231 231 231 231 232 232 232 233 233 234 234 234 235 235 235 236 236 237 239 240 240 239 239 239 237 236 235 234 233 232 233 234 235 235 236 238 241 245 248 253 259 264 270 275 279 283 288 294 300 305 309 314 318
259 135 166 183 206 229 124 135 232 305 329 281 196 123 290 281 251 183 200 210 222 237 240 244 243 243 243 244 247 248 250 256 256 250 246 242 237 234 233 232 233 235 233 232 231 230 230 230 230 230 231 232 233 233 234 236 237 237 237 237 237 238 239 241 242 241 240 239 237 236 234 232 231 231 232 233 233 233 235 237 240 243 247 251 256 261 267 273 276 280 286 292 296 302 307 310 315
240 95 75 59 55 46 66 64 76 35 306 262 191 146 223 281 273 159 187 209 209 226 233 234 235 238 242 245 249 251 252 254 254 252 250 247 243 237 232 230 232 234 233 232 230 229 228 228 228 229 229 231 232 233 235 236 237 238 239 238 239 239 238 238 239 239 239 239 237 235 233 231 230 230 231 232 232 232 233 236 238 241 245 249 254 259 265 270 274 278 282 287 292 298 304 307 311
133 79 45 24 8 23 50 12 69 47 276 241 179 172 180 273 289 136 170 206 199 209 221 234 239 237 243 248 250 253 255 254 252 249 248 246 242 235 229 228 230 232 231 228 227 227 227 227 227 228 228 229 231 232 234 235 236 239 240 240 240 240 239 238 238 237 237 237 236 235 233 231 231 231 232 232 231 232 232 234 237 240 243 248 253 258 263 268 272 276 280 284 289 295 300 305 309
90 81 66 14 325 13 29 351 58 219 265 220 181 181 179 234 271 112 247 255 204 205 203 220 236 238 242 246 250 253 252 251 248 245 242 239 234 227 223 226 228 228 226 224 223 223 224 225 226 227 227 227 229 230 231 232 234 238 241 241 241 241 241 240 240 240 239 238 237 235 233 232 231 230 231 231 231 231 232 234 236 239 242 246 250 255 261 266 270 274 278 281 286 293 299 303 307
96 98 104 33 301 346 357 309 74 225 257 228 189 178 199 240 262 278 274 284 231 221 213 216 224 232 240 243 246 250 248 246 244 240 237 234 231 226 222 224 224 222 220 218 217 219 220 222 224 225 225 225 226 227 228 229 233 237 241 242 242 241 241 241 242 241 241 241 239 237 235 233 232 231 231 232 232 232 233 234 236 239 241 244 248 253 259 264 269 272 275 278 284 292 298 301 304
156 146 146 170 220 244 265 259 268 264 264 253 190 163 242 275 281 227 234 237 222 216 219 222 220 227 242 243 242 248 248 243 239 235 233 233 233 231 227 226 223 219 217 216 215 216 217 220 222 223 224 225 225 225 226 227 231 236 240 243 243 241 241 242 242 241 241 241 241 241 240 239 237 236 235 235 234 234 234 234 235 236 238 242 246 252 257 262 266 269 271 275 283 291 295 297 300
182 158 143 178 180 178 219 242 260 275 286 278 185 155 248 292 281 214 223 240 236 223 222 226 224 230 246 249 244 249 250 241 236 232 231 233 235 235 232 229 226 221 217 216 216 216 218 220 221 221 221 223 224 224 224 225 228 233 237 240 242 243 243 242 242 242 242 242 241 241 241 241 241 240 239 237 235 235 234 233 233 235 237 240 244 250 255 259 262 265 268 274 283 289 291 294 298
217 131 121 214 195 182 221 253 246 249 313 285 226 196 239 268 270 247 242 259 258 237 229 228 230 235 245 251 247 247 246 239 234 231 229 232 234 236 236 233 229 225 220 219 218 218 221 223 222 221 221 222 224 224 223 224 226 230 234 237 240 242 242 242 242 242 242 242 242 242 242 242 242 241 239 236 234 233 233 232 233 234 236 239 243 248 252 256 260 262 266 274 282 286 288 292 296
189 136 181 216 165 165 210 272 271 177 259 271 258 249 272 309 291 269 241 251 261 263 249 237 236 236 239 244 244 243 240 235 233 231 229 231 233 235 239 238 234 228 225 225 224 225 229 229 225 223 223 224 225 225 224 224 225 228 232 234 237 239 242 243 243 243 242 241 241 241 242 242 241 240 238 234 233 232 232 232 233 234 235 238 243 247 251 254 258 261 265 273 280 284 286 290 294
131 179 214 159 56 115 158 232 308 245 248 263 268 269 281 294 283 307 35 263 260 262 256 245 240 238 238 242 242 240 237 231 230 230 230 230 233 238 242 242 240 235 232 232 231 232 234 233 229 227 226 226 228 228 226 225 225 227 230 232 235 237 241 244 244 243 242 241 240 240 240 240 240 239 237 234 232 232 232 232 232 233 235 238 242 246 250 253 256 259 265 273 279 281 284 288 291
143 205 216 103 131 226 156 171 207 238 246 255 265 272 275 255 262 300 316 251 241 238 236 237 241 241 243 245 244 242 235 227 225 227 230 233 236 241 243 243 242 238 237 237 236 235 235 235 233 231 231 231 231 230 228 227 227 227 229 232 234 236 238 241 242 242 242 241 241 240 239 239 238 237 235 234 233 233 232 232 232 234 235 238 242 245 248 252 254 258 265 273 277 278 282 286 288
97 17 345 58 182 185 180 182 165 221 242 254 262 269 275 258 252 288 280 246 237 244 239 238 240 240 241 243 245 245 237 228 226 227 231 236 242 246 246 246 245 242 241 241 239 238 239 240 236 234 234 234 232 232 232 231 229 229 230 232 235 235 236 238 240 241 242 242 241 240 239 239 237 236 235 235 235 234 234 233 233 234 235 238 241 244 248 251 254 259 266 272 275 276 280 284 287
170 208 243 253 225 173 222 221 167 215 240 252 255 256 268 264 219 306 296 263 235 241 241 245 245 241 243 246 250 250 244 236 233 234 238 240 245 250 250 249 248 245 243 242 241 242 242 241 241 239 237 235 234 234 234 234 232 231 231 233 235 236 235 236 237 239 241 241 241 241 239 239 237 236 236 235 235 235 234 234 233 234 236 238 241 243 246 250 254 260 266 270 272 274 278 283 287
181 198 207 209 213 203 253 246 212 211 237 242 253 255 261 271 276 295 299 286 258 244 235 246 254 250 253 256 254 250 246 243 240 241 245 246 249 255 255 253 253 250 247 246 246 246 244 244 247 246 241 238 237 237 236 236 235 233 233 234 236 236 236 235 235 237 239 239 240 240 238 237 236 235 235 235 235 234 233 233 233 233 235 237 240 243 245 249 253 259 265 268 270 273 277 281 285